Theta_e
304 303 306 306 306 306 307 307 300 301 298 297 300 306 304 307 311 311 310 312 314 311 310 310 310 309 311 312 312 313 315 310 308 309 309 309 308 307 307 307 307 308 308 310 310
304 302 302 303 302 300 304 303 298 299 298 298 301 306 306 305 309 310 308 309 309 310 309 310 310 311 311 311 311 311 312 308 309 309 309 309 308 308 308 308 308 309 310 310 310
304 301 300 300 299 300 301 299 297 297 298 301 303 306 306 306 311 309 307 309 310 311 309 309 310 311 310 309 309 309 310 309 310 310 308 309 309 309 309 310 310 311 310 310 312
304 300 299 299 299 299 300 298 297 297 300 301 306 306 306 310 317 307 307 310 311 311 311 311 312 311 309 309 308 310 310 311 311 311 310 309 309 310 309 311 310 309 310 309 307
304 300 299 299 299 298 298 297 297 297 301 303 307 307 309 312 309 306 307 311 311 311 310 311 311 310 309 309 310 310 310 310 310 311 310 309 310 310 311 309 309 309 306 306 305
303 300 300 300 299 298 297 297 297 298 301 306 305 306 310 313 305 306 309 311 311 311 310 310 310 309 309 310 310 309 310 310 310 312 311 311 312 312 311 311 311 309 307 307 307
303 301 300 300 299 298 297 297 297 299 303 306 305 308 309 307 306 306 308 311 310 310 311 310 310 311 311 311 309 309 311 310 311 312 312 312 315 313 312 311 310 308 307 306 308
303 301 300 300 299 297 297 297 298 301 305 305 305 309 308 305 305 306 308 311 311 310 310 310 310 311 310 309 309 311 313 318 312 311 312 313 317 312 311 310 310 309 307 306 306
303 301 301 301 298 297 297 297 301 303 303 305 309 308 309 305 307 305 307 310 311 311 310 309 311 311 312 316 318 318 317 315 316 312 313 313 314 312 310 310 309 308 307 306 305
303 302 302 300 298 297 297 299 300 301 301 300 303 308 305 307 306 305 307 308 312 311 314 314 314 314 313 319 320 317 317 316 316 313 311 313 314 312 310 310 308 308 307 306 305
304 303 303 300 297 297 298 300 305 305 302 303 304 306 306 305 306 307 307 309 311 312 315 314 317 314 312 311 312 312 310 310 315 313 312 315 312 313 311 310 309 308 306 305 305
304 303 303 300 297 297 299 303 303 304 304 302 303 304 304 304 308 308 308 312 312 313 311 315 314 311 311 311 313 311 314 314 312 314 313 309 309 314 312 312 309 307 305 305 304
305 304 304 300 297 298 303 302 298 301 307 303 303 305 305 305 308 308 308 311 312 312 313 315 313 311 313 314 313 314 314 312 312 313 314 313 314 310 314 313 310 307 306 305 303
306 305 304 298 298 302 303 298 298 301 318 304 303 304 305 307 308 306 305 309 311 312 312 312 311 312 313 313 310 313 311 310 312 314 314 310 313 316 315 314 312 308 305 304 303
307 305 304 298 303 301 303 298 299 306 319 303 303 302 305 308 307 308 305 309 311 311 311 311 311 311 312 310 309 312 310 311 312 315 313 310 312 316 316 316 312 307 305 303 302
307 305 304 297 300 302 298 297 305 314 314 301 304 307 307 306 306 307 307 307 307 309 309 309 308 309 308 308 308 308 310 314 314 313 314 308 312 316 315 315 313 307 304 302 301
308 306 299 300 303 298 297 304 310 315 303 303 305 306 307 306 307 309 309 310 314 310 311 308 310 307 306 308 309 310 311 317 315 314 313 307 310 314 313 313 310 306 304 301 300
307 305 299 299 299 297 303 306 309 313 307 301 304 305 307 306 306 308 309 309 307 308 311 314 315 308 306 308 309 310 310 311 314 313 308 307 309 312 311 311 307 304 304 302 300
307 302 297 296 297 299 305 308 312 310 305 304 304 307 306 304 305 307 310 310 307 307 316 311 309 307 307 307 308 311 310 308 311 303 310 308 308 308 309 309 309 306 304 302 299
302 299 299 296 297 301 302 308 305 300 302 304 310 308 307 305 306 308 308 307 307 306 306 306 311 306 308 307 307 310 307 311 310 307 309 307 306 305 307 309 308 306 303 301 300
300 302 298 297 298 301 304 304 301 298 300 303 307 300 309 304 308 309 308 304 306 306 306 307 309 308 307 308 307 309 310 307 306 307 309 307 306 306 309 307 309 306 303 300 299
300 302 297 296 302 299 303 300 298 297 300 301 302 304 306 303 307 308 305 305 304 305 308 307 309 310 308 306 306 307 308 308 308 308 306 307 303 306 307 307 309 306 303 300 299
299 299 297 296 302 302 295 296 296 298 300 301 301 302 303 304 302 305 305 301 302 305 307 307 307 308 312 309 305 307 308 308 307 305 308 309 309 306 306 307 309 304 302 300 298
299 301 299 297 302 303 299 299 297 296 300 300 301 301 302 300 298 302 304 301 299 304 303 304 306 310 312 309 306 308 307 307 307 308 310 306 305 304 304 305 305 305 301 300 298
298 302 298 297 298 303 303 299 298 296 298 299 300 302 302 299 301 300 302 300 300 304 303 303 301 299 302 303 303 303 303 306 307 306 305 307 305 305 304 304 304 304 302 300 299
300 300 297 300 298 303 304 300 300 300 298 298 300 301 303 301 304 301 302 301 301 302 303 301 300 295 296 298 298 299 299 301 302 304 306 306 306 304 303 302 303 304 303 301 300
305 303 305 303 300 302 303 303 302 300 299 301 301 301 300 301 300 300 300 300 301 301 298 299 293 298 305 295 295 302 300 297 299 301 302 303 304 304 305 305 303 303 303 302 300
Wind_Speed
5 6 8 8 10 11 12 12 11 12 11 9 8 7 4 6 12 12 12 12 16 19 13 11 4 5 9 4 6 0 2 4 5 7 8 11 8 6 8 8 10 7 8 20 29
6 6 7 8 10 10 11 11 10 11 11 9 7 7 5 4 5 16 13 16 18 15 11 13 7 7 3 3 4 6 4 5 5 6 7 9 9 9 8 13 10 13 21 28 29
7 6 7 7 9 10 11 11 11 10 10 8 7 7 4 3 4 7 18 19 20 14 5 5 6 3 6 5 7 6 4 2 6 6 7 9 8 11 9 11 15 19 20 22 20
8 6 7 7 9 9 10 10 10 10 9 7 7 5 4 1 1 9 16 19 17 15 6 5 3 1 4 5 3 5 6 5 4 4 4 7 9 10 9 12 17 17 15 18 19
9 7 7 8 8 9 9 9 10 8 8 6 5 4 3 2 4 11 14 16 12 11 12 5 7 4 5 4 8 9 5 1 2 4 5 6 11 4 12 16 15 21 20 18 16
10 7 7 7 8 8 8 9 9 7 6 5 4 3 2 1 5 11 12 13 16 14 15 13 7 7 7 5 6 4 2 2 3 6 4 7 9 7 15 17 19 21 21 18 16
10 8 7 8 7 8 8 9 7 5 4 3 5 4 6 4 5 10 9 11 13 14 11 10 5 3 4 5 1 3 3 6 5 7 2 7 6 10 13 16 19 20 17 17 18
10 9 7 7 6 7 8 7 4 3 3 2 3 2 3 1 5 8 8 4 8 8 6 6 6 5 5 5 4 3 2 3 6 8 2 5 4 9 10 12 15 19 18 18 22
11 9 7 6 6 6 6 3 2 2 3 2 3 2 3 2 3 7 7 5 6 4 4 3 4 3 3 1 2 5 2 2 2 6 6 7 4 4 8 8 12 16 18 17 17
11 9 6 5 5 5 3 0 2 2 4 3 1 1 1 2 3 5 5 5 3 4 3 3 2 3 5 3 1 2 4 3 3 6 7 6 6 4 7 8 9 13 15 17 18
11 10 6 4 5 4 2 1 1 2 8 4 3 2 3 3 3 3 4 5 3 5 1 3 4 5 6 7 4 4 3 4 4 5 5 4 6 4 6 7 8 11 13 15 16
12 10 6 4 4 1 3 3 1 2 4 1 2 4 2 1 1 6 8 3 4 3 1 1 5 5 5 3 3 4 1 4 8 4 2 5 7 4 2 3 6 7 10 15 19
14 10 7 3 3 2 3 2 4 2 2 3 2 2 1 3 3 4 8 2 3 4 4 5 6 4 1 2 5 6 3 3 4 6 3 6 2 4 2 6 7 7 7 9 13
14 11 7 3 1 3 2 4 7 2 2 5 3 2 2 2 2 3 4 2 1 4 5 6 3 1 2 3 4 2 6 6 7 7 2 2 3 1 3 5 7 8 9 11 12
16 12 9 8 1 2 2 6 4 1 2 2 3 1 2 2 3 2 2 4 4 5 2 2 5 2 3 3 4 3 4 5 5 4 5 4 2 2 5 6 7 8 10 9 9
19 14 9 7 3 4 9 7 1 4 6 3 3 4 5 3 2 4 2 1 2 2 4 4 1 2 5 3 4 4 5 3 2 2 2 4 2 2 3 2 5 6 8 10 11
20 15 12 9 3 9 12 2 4 3 4 3 4 5 4 4 3 3 4 1 2 4 1 2 3 4 1 4 4 5 5 1 3 3 2 4 3 1 5 5 5 5 7 7 7
22 17 13 9 8 13 6 4 2 0 4 2 3 6 3 4 1 4 4 3 1 2 3 3 3 1 2 3 1 2 2 3 0 2 4 2 4 3 6 5 5 5 5 6 7
24 15 7 9 14 12 3 2 6 5 7 9 4 4 2 2 1 4 2 2 2 2 3 3 2 1 1 2 2 1 3 0 0 1 1 3 2 4 6 6 5 3 3 5 6
21 11 6 12 16 4 3 5 3 3 2 5 4 3 5 5 6 3 7 1 3 1 5 2 4 1 1 3 2 1 2 1 1 3 3 3 2 3 7 8 8 7 6 5 3
16 4 6 16 12 4 3 5 3 4 2 4 3 4 3 6 4 5 7 2 1 4 2 1 2 1 3 2 1 2 3 2 2 1 1 4 4 4 4 8 9 9 8 8 6
9 3 11 18 3 2 4 4 0 4 2 2 1 5 5 5 4 4 5 3 3 5 4 2 2 3 3 2 4 4 1 1 3 2 2 1 6 0 3 6 7 9 8 9 8
6 3 4 4 5 4 2 2 1 4 4 6 2 2 1 5 4 3 3 5 4 2 3 4 1 2 4 2 2 5 4 3 4 3 5 4 5 2 1 2 4 9 9 9 9
4 5 2 3 2 6 6 4 4 2 3 3 4 4 4 3 4 5 3 2 1 2 2 2 1 3 3 3 3 3 5 6 5 4 3 6 5 5 7 8 8 7 10 9 8
2 5 7 8 7 6 7 9 7 6 4 6 1 4 6 4 2 2 4 3 1 4 1 3 2 2 3 4 3 3 5 9 9 7 6 4 5 5 4 9 10 9 8 9 9
6 5 2 3 13 9 10 9 11 7 8 6 4 8 4 5 4 8 8 5 5 4 4 1 2 2 3 3 2 6 9 10 8 9 14 14 22 13 11 10 8 10 10 10 10
7 5 3 11 10 13 8 9 12 12 5 3 8 8 7 6 12 12 11 8 4 7 4 4 5 2 4 1 4 6 7 11 6 6 8 8 10 5 4 3 4 8 10 11 10
Wind_Direction
311 324 333 343 341 342 343 347 351 348 351 352 351 350 319 12 39 41 36 339 333 342 353 314 308 324 31 37 351 316 21 58 32 11 335 1 345 346 341 303 333 304 309 333 326
293 310 318 333 335 337 338 343 346 347 347 352 353 351 343 327 348 50 357 351 0 11 5 358 18 33 52 41 6 360 62 48 40 0 339 335 345 329 339 325 312 335 331 319 306
280 296 307 324 329 332 336 339 343 347 347 351 352 359 4 352 268 26 350 0 11 15 341 333 314 351 76 50 4 10 74 87 36 21 338 334 338 335 315 333 349 332 317 315 331
271 285 299 315 323 329 332 337 340 343 343 353 348 8 27 358 93 359 349 4 8 12 338 280 241 59 62 61 11 101 60 47 25 353 342 355 331 304 354 348 334 318 333 336 333
265 278 292 307 319 326 330 335 336 340 339 352 356 346 351 118 32 343 354 7 16 24 25 0 43 56 87 88 76 91 125 125 349 338 45 342 324 326 5 339 325 351 342 333 322
263 271 286 302 318 323 331 332 334 336 337 356 13 36 309 118 350 343 6 11 24 30 27 34 41 69 68 48 31 84 140 61 288 14 80 336 322 22 346 353 349 345 337 329 320
260 267 280 298 315 321 328 327 329 331 337 1 47 48 63 58 359 3 4 10 22 28 50 44 338 350 149 112 53 135 227 218 67 11 70 292 93 29 356 360 354 340 348 342 345
253 259 272 293 312 323 325 328 327 334 347 326 27 32 67 323 34 0 13 5 23 35 42 27 37 67 25 119 185 257 269 320 88 20 340 355 5 26 7 3 348 346 355 358 358
248 252 263 285 308 316 322 329 5 4 7 52 358 339 87 8 7 352 4 354 337 35 23 345 324 109 198 24 233 30 61 323 72 60 338 42 305 12 8 3 357 353 355 1 1
239 241 253 278 300 313 316 221 69 27 11 30 306 131 131 60 339 352 344 345 332 308 218 242 208 100 32 5 85 15 353 331 354 1 357 349 334 8 359 2 4 3 359 360 358
228 232 246 272 298 319 137 85 233 157 41 32 29 69 63 352 9 33 353 327 234 232 9 99 57 68 60 55 73 67 45 304 269 9 340 13 313 2 7 355 1 24 4 3 355
223 221 237 265 291 299 176 282 99 128 116 85 105 93 49 336 227 56 357 282 233 87 202 76 93 81 68 34 111 115 284 298 286 280 14 320 301 334 25 27 17 31 16 6 2
217 218 226 248 281 233 224 183 164 145 249 126 58 60 74 302 49 14 343 287 353 80 60 67 92 125 301 193 299 184 318 356 311 298 179 276 340 328 128 58 28 39 46 39 20
211 217 217 196 186 189 204 193 155 65 35 151 187 119 183 288 125 358 359 345 154 86 27 82 133 266 271 285 341 290 33 341 322 342 344 85 301 246 104 53 28 26 28 27 26
208 209 214 182 54 196 165 161 151 60 295 71 122 71 165 271 118 106 326 246 44 112 232 140 161 211 260 51 341 24 13 314 309 294 324 33 342 228 177 28 14 24 27 28 29
201 200 206 192 198 205 151 140 64 49 249 130 126 160 171 191 117 148 199 120 335 121 68 93 118 349 4 307 238 322 260 189 263 290 12 32 27 354 16 23 21 22 38 25 17
197 190 181 167 156 174 141 134 55 186 359 208 171 179 214 146 139 230 155 68 152 92 345 190 117 119 246 263 184 234 259 310 360 19 228 21 316 201 136 115 66 33 37 41 42
186 187 179 184 165 159 127 56 181 154 198 231 137 142 169 165 111 183 174 138 203 247 121 165 302 9 6 35 333 317 345 102 189 6 306 341 293 209 119 118 106 93 70 57 53
177 163 168 183 164 157 95 133 215 197 157 150 147 121 141 197 229 200 214 92 65 283 132 138 77 115 20 316 312 346 67 99 22 26 52 218 213 88 153 164 170 157 103 90 81
152 141 162 172 160 146 84 243 227 237 140 184 140 170 161 190 166 201 168 70 148 338 328 138 106 25 312 254 205 16 179 126 304 26 318 280 270 249 197 197 181 171 177 133 111
141 118 183 160 142 56 187 222 212 239 348 209 148 124 160 164 167 183 170 310 214 145 286 108 129 284 9 281 346 184 158 146 139 124 285 315 263 347 189 168 174 175 165 157 162
139 141 179 158 102 180 183 181 46 156 199 250 352 114 144 147 163 172 169 69 128 155 156 55 100 120 76 53 344 316 21 167 123 193 213 104 272 331 24 158 158 161 150 153 153
118 119 196 230 170 197 139 122 241 154 194 180 155 123 163 128 113 111 67 323 83 201 152 191 290 83 330 0 279 258 199 204 100 100 219 154 265 150 220 332 173 160 161 158 157
127 129 147 230 245 150 148 177 178 248 229 189 121 100 110 96 348 134 118 176 104 70 25 357 159 180 183 155 124 217 210 209 168 143 219 226 249 212 214 214 214 199 169 168 169
144 186 174 175 219 186 161 146 138 178 244 194 347 208 156 117 105 125 93 116 313 118 261 107 171 22 303 303 185 224 245 209 221 209 181 245 265 273 266 215 206 196 170 167 184
144 146 173 160 149 148 171 201 164 155 152 221 205 173 151 148 177 181 130 185 183 167 185 76 166 95 309 354 297 270 233 231 251 250 255 259 279 274 259 265 188 183 182 185 188
152 156 136 159 154 176 187 173 187 138 237 184 165 125 124 93 77 84 78 77 119 141 145 131 130 94 270 226 313 304 226 192 214 223 221 214 226 270 300 7 207 188 181 191 195